Regional Weather Roundup
Issued by NWS Little Rock, AR

Home | Current Version | Previous Version | Text Only | Print | Product List | Glossary On
Versions: 1 2 3 4 5 6 7 8 9 10 11 12 13 14 15 16 17 18 19 20 21 22 23 24 25 26 27 28 29 30 31 32 33 34 35 36 37 38 39 40 41 42 43 44 45 46 47 48 49 50
000
ASUS44 KLZK 222005
RWRLZK

WEATHER ROUNDUP FOR ARKANSAS
NATIONAL WEATHER SERVICE LITTLE ROCK AR
200 PM CST MON DEC 22 2014

NOTE: "FAIR" INDICATES FEW OR NO CLOUDS BELOW 12,000 FEET WITH NO
SIGNIFICANT WEATHER AND/OR OBSTRUCTIONS TO VISIBILITY.

ARZ001-003-010-029-222100-
NORTHWEST ARKANSAS

CITY           SKY/WX    TMP DP  RH WIND       PRES   REMARKS
FAYETTEVILLE   CLOUDY    49  48  97 S8        29.52F FOG
FORT SMITH     CLOUDY    53  50  89 N5        29.54S FOG
HARRISON       CLOUDY    48  48 100 SE9       29.52F
BENTONVILLE    CLOUDY    50  46  87 SW9       29.51F
ROGERS         LGT RAIN  49  48  97 SW8       29.51F
SILOAM SPGS    CLOUDY    48  43  81 SW10      29.53F
HIGHFILL       CLOUDY    50  48  93 SW10      29.50F
SPRINGDALE     CLOUDY    48  48 100 SW6       29.53F VSB 1
$$

ARZ004-005-016-222100-
NORTH CENTRAL ARKANSAS

CITY           SKY/WX    TMP DP  RH WIND       PRES   REMARKS
BATESVILLE     CLOUDY    52  48  87 SE8       29.58F
FLIPPIN        CLOUDY    52  45  76 S5        29.53F
MTN HOME       CLOUDY    49  48  97 S3        29.53F
$$

ARZ040-041-222100-
WEST CENTRAL ARKANSAS

CITY           SKY/WX    TMP DP  RH WIND       PRES   REMARKS
MENA           CLOUDY    59  54  82 CALM      29.54F
$$

ARZ009-017-025-026-028-222100-
NORTHEAST ARKANSAS

CITY           SKY/WX    TMP DP  RH WIND       PRES   REMARKS
CORNING        FAIR      52  52 100 S14       29.59F FOG
JONESBORO      CLOUDY    53  52  96 S13       29.61F
NEWPORT        CLOUDY    53  52  97 S12       29.61F
WALNUT RIDGE   CLOUDY    52  48  87 S14       29.58F
BLYTHEVILLE    CLOUDY    57  52  83 S18G26    29.62F
$$

ARZ022-023-033-042-044-222100-
CENTRAL ARKANSAS

CITY           SKY/WX    TMP DP  RH WIND       PRES   REMARKS
LITTLE ROCK    CLOUDY    56  50  80 VRB3      29.59F
N LITTLE ROCK  CLOUDY    53  53  97 S7        29.59F
JACKSONVILLE   CLOUDY    53  53  98 S6        29.58F
SEARCY         CLOUDY    53  52  96 S10       29.60F
HOT SPRINGS    CLOUDY    53  52  96 S6        29.56F FOG
RUSSELLVILLE   CLOUDY    51  50  96 E3        29.54F FOG
CLINTON        CLOUDY    52  50  93 SE6       29.57F FOG
$$

ARZ036-222100-
EAST ARKANSAS

CITY           SKY/WX    TMP DP  RH WIND       PRES   REMARKS
WEST MEMPHIS   CLOUDY    59  54  83 SE18G28   29.60F
$$

ARZ050-053-066-070-073-222100-
SOUTHWEST ARKANSAS

CITY           SKY/WX    TMP DP  RH WIND       PRES   REMARKS
ARKADELPHIA    MOCLDY    57  56  97 S9        29.58F
CAMDEN         CLOUDY    59  52  77 MISG      29.59F
TEXARKANA      CLOUDY    59  55  87 SE8       29.55F
EL DORADO      CLOUDY    59  54  83 S8        29.59F
DE QUEEN       CLOUDY    61  54  77 SW7       29.52F
$$

ARZ056-057-069-222100-
SOUTHEAST ARKANSAS

CITY           SKY/WX    TMP DP  RH WIND       PRES   REMARKS
PINE BLUFF     CLOUDY    58  51  78 S10       29.60F
STUTTGART      CLOUDY    55  52  88 S14       29.61F
MONTICELLO     CLOUDY    57  54  89 S8        29.61F

$$




USA.gov is the U.S. government's official web portal to all federal, state and local government web resources and services.